1581548454,2020-02-13 00:00,100.00,988.36,1006.19,148,1.28,1.28,-92,1
1581548514,2020-02-13 00:01,100.00,988.23,1006.06,148,1.22,1.22,-91,1
1581548574,2020-02-13 00:02,100.00,988.24,1006.07,148,1.24,1.24,-93,1
1581548634,2020-02-13 00:03,100.00,988.22,1006.05,148,1.35,1.35,-90,1
1581548694,2020-02-13 00:04,100.00,988.28,1006.11,148,1.23,1.23,-92,1
1581548755,2020-02-13 00:05,100.00,988.22,1006.05,148,1.19,1.19,-92,1
1581548815,2020-02-13 00:06,100.00,988.28,1006.11,148,1.22,1.22,-93,1
1581548875,2020-02-13 00:07,100.00,988.24,1006.07,148,1.17,1.17,-91,1
1581548935,2020-02-13 00:08,100.00,988.33,1006.16,148,1.09,1.09,-90,1
1581548995,2020-02-13 00:09,100.00,988.31,1006.15,148,1.14,1.14,-92,1
1581549055,2020-02-13 00:10,100.00,988.29,1006.12,148,1.12,1.12,-92,1
1581549115,2020-02-13 00:11,100.00,988.38,1006.21,148,1.12,1.12,-92,1
1581549175,2020-02-13 00:12,100.00,988.37,1006.20,148,1.11,1.11,-91,1
1581549235,2020-02-13 00:13,100.00,988.41,1006.24,148,1.09,1.09,-92,1
1581549296,2020-02-13 00:14,100.00,988.34,1006.17,148,1.15,1.15,-91,1
1581549356,2020-02-13 00:15,100.00,988.34,1006.17,148,1.13,1.13,-94,1
1581549416,2020-02-13 00:16,100.00,988.44,1006.27,148,1.11,1.11,-89,1
1581549476,2020-02-13 00:17,100.00,988.39,1006.22,148,1.11,1.11,-92,1
1581549536,2020-02-13 00:18,100.00,988.33,1006.16,148,1.14,1.14,-91,1
1581549596,2020-02-13 00:19,100.00,988.32,1006.15,148,1.15,1.15,-92,1
1581549656,2020-02-13 00:20,100.00,988.37,1006.20,148,1.13,1.13,-92,1
1581549717,2020-02-13 00:21,100.00,988.40,1006.23,148,1.26,1.26,-93,1
1581549777,2020-02-13 00:22,100.00,988.48,1006.32,148,1.20,1.20,-91,1
1581549837,2020-02-13 00:23,100.00,988.43,1006.26,148,1.19,1.19,-92,1
1581549897,2020-02-13 00:24,100.00,988.44,1006.27,148,1.19,1.19,-92,1
1581549957,2020-02-13 00:25,100.00,988.41,1006.24,148,1.18,1.18,-90,1
1581550017,2020-02-13 00:26,100.00,988.49,1006.32,148,1.16,1.16,-93,1
1581550077,2020-02-13 00:27,100.00,988.47,1006.30,148,1.21,1.21,-91,1
1581550137,2020-02-13 00:28,100.00,988.53,1006.37,148,1.30,1.30,-92,1
1581550197,2020-02-13 00:29,100.00,988.49,1006.32,148,1.27,1.27,-93,1
1581550260,2020-02-13 00:31,100.00,988.51,1006.34,148,1.30,1.30,-92,1
1581550320,2020-02-13 00:32,100.00,988.51,1006.34,148,1.24,1.24,-93,1
1581550381,2020-02-13 00:33,100.00,988.53,1006.36,148,1.22,1.22,-91,1
1581550441,2020-02-13 00:34,100.00,988.54,1006.37,148,1.21,1.21,-92,1
1581550501,2020-02-13 00:35,100.00,988.52,1006.35,148,1.25,1.25,-92,1
1581550561,2020-02-13 00:36,100.00,988.59,1006.42,148,1.31,1.31,-94,1
1581550622,2020-02-13 00:37,100.00,988.55,1006.38,148,1.35,1.35,-92,1
1581550682,2020-02-13 00:38,100.00,988.58,1006.41,148,1.25,1.25,-93,1
1581550742,2020-02-13 00:39,100.00,988.68,1006.51,148,1.25,1.25,-92,1
1581550802,2020-02-13 00:40,100.00,988.63,1006.47,148,1.26,1.26,-92,1
1581550862,2020-02-13 00:41,100.00,988.66,1006.49,148,1.23,1.23,-91,1
1581550922,2020-02-13 00:42,100.00,988.61,1006.44,148,1.22,1.22,-92,1
1581550982,2020-02-13 00:43,100.00,988.60,1006.43,148,1.21,1.21,-92,1
1581551042,2020-02-13 00:44,100.00,988.64,1006.47,148,1.21,1.21,-92,1
1581551102,2020-02-13 00:45,100.00,988.72,1006.55,148,1.20,1.20,-91,1
1581551162,2020-02-13 00:46,100.00,988.65,1006.48,148,1.19,1.19,-93,1
1581551223,2020-02-13 00:47,100.00,988.64,1006.47,148,1.22,1.22,-92,1
1581551283,2020-02-13 00:48,100.00,988.69,1006.52,148,1.22,1.22,-91,1
1581551343,2020-02-13 00:49,100.00,988.71,1006.54,148,1.22,1.22,-92,1
1581551466,2020-02-13 00:51,100.00,988.74,1006.57,148,1.27,1.27,-91,1
1581551526,2020-02-13 00:52,100.00,988.71,1006.54,148,1.27,1.27,-91,1
1581551589,2020-02-13 00:53,100.00,988.80,1006.63,148,1.27,1.27,-92,1
1581551649,2020-02-13 00:54,100.00,988.77,1006.60,148,1.26,1.26,-91,1
1581551710,2020-02-13 00:55,100.00,988.75,1006.58,148,1.26,1.26,-92,1
1581551770,2020-02-13 00:56,100.00,988.76,1006.60,148,1.28,1.28,-94,1
1581551830,2020-02-13 00:57,100.00,988.70,1006.53,148,1.28,1.28,-92,1
1581551890,2020-02-13 00:58,100.00,988.74,1006.58,148,1.28,1.28,-91,1
1581551950,2020-02-13 00:59,100.00,988.75,1006.58,148,1.30,1.30,-92,1
1581552010,2020-02-13 01:00,100.00,988.74,1006.58,148,1.30,1.30,-93,1
1581552070,2020-02-13 01:01,100.00,988.80,1006.63,148,1.29,1.29,-92,1
1581552130,2020-02-13 01:02,100.00,988.69,1006.52,148,1.33,1.33,-91,1
1581552191,2020-02-13 01:03,100.00,988.81,1006.64,148,1.32,1.32,-91,1
1581552251,2020-02-13 01:04,100.00,988.75,1006.58,148,1.32,1.32,-91,1
1581552314,2020-02-13 01:05,100.00,988.75,1006.59,148,1.35,1.35,-93,1
1581552374,2020-02-13 01:06,100.00,988.85,1006.68,148,1.35,1.35,-94,1
1581552434,2020-02-13 01:07,100.00,988.87,1006.70,148,1.34,1.34,-92,1
1581552494,2020-02-13 01:08,100.00,988.85,1006.68,148,1.34,1.34,-94,1
1581552554,2020-02-13 01:09,100.00,988.85,1006.68,148,1.37,1.37,-91,1
1581552614,2020-02-13 01:10,100.00,988.79,1006.62,148,1.36,1.36,-92,1
1581552674,2020-02-13 01:11,100.00,988.83,1006.66,148,1.35,1.35,-93,1
1581552734,2020-02-13 01:12,100.00,988.92,1006.76,148,1.35,1.35,-93,1
1581552794,2020-02-13 01:13,100.00,988.85,1006.68,148,1.35,1.35,-93,1
1581552854,2020-02-13 01:14,100.00,988.87,1006.70,148,1.37,1.37,-90,1
1581552915,2020-02-13 01:15,100.00,988.95,1006.78,148,1.36,1.36,-91,1
1581552975,2020-02-13 01:16,100.00,989.07,1006.90,148,1.32,1.32,-91,1
1581553035,2020-02-13 01:17,100.00,988.94,1006.77,148,1.35,1.35,-92,1
1581553095,2020-02-13 01:18,100.00,988.98,1006.81,148,1.44,1.44,-92,1
1581553155,2020-02-13 01:19,100.00,988.96,1006.79,148,1.42,1.42,-90,1
1581553215,2020-02-13 01:20,100.00,988.92,1006.75,148,1.41,1.41,-91,1
1581553275,2020-02-13 01:21,100.00,988.99,1006.82,148,1.33,1.33,-92,1
1581553336,2020-02-13 01:22,100.00,988.95,1006.78,148,1.43,1.43,-92,1
1581553396,2020-02-13 01:23,100.00,988.89,1006.72,148,1.42,1.42,-92,1
1581553456,2020-02-13 01:24,100.00,988.90,1006.73,148,1.41,1.41,-91,1
1581553516,2020-02-13 01:25,100.00,988.95,1006.79,148,1.45,1.45,-94,1
1581553576,2020-02-13 01:26,100.00,988.67,1006.50,148,1.44,1.44,-93,1
1581553639,2020-02-13 01:27,100.00,988.87,1006.70,148,1.45,1.45,-93,1
1581553699,2020-02-13 01:28,100.00,988.95,1006.78,148,1.53,1.53,-92,1
1581553759,2020-02-13 01:29,100.00,988.94,1006.77,148,1.50,1.50,-91,1
1581553819,2020-02-13 01:30,100.00,988.94,1006.77,148,1.46,1.46,-93,1
1581553879,2020-02-13 01:31,100.00,988.89,1006.72,148,1.46,1.46,-91,1
1581553939,2020-02-13 01:32,100.00,988.94,1006.78,148,1.45,1.45,-93,1
1581554000,2020-02-13 01:33,100.00,988.91,1006.74,148,1.43,1.43,-91,1
1581554060,2020-02-13 01:34,100.00,988.89,1006.72,148,1.48,1.48,-92,1
1581554120,2020-02-13 01:35,100.00,988.95,1006.78,148,1.46,1.46,-94,1
1581554180,2020-02-13 01:36,100.00,988.93,1006.76,148,1.47,1.47,-91,1
1581554241,2020-02-13 01:37,100.00,988.96,1006.79,148,1.50,1.50,-93,1
1581554301,2020-02-13 01:38,100.00,988.96,1006.79,148,1.49,1.49,-93,1
1581554361,2020-02-13 01:39,100.00,988.99,1006.82,148,1.50,1.50,-92,1
1581554421,2020-02-13 01:40,100.00,988.85,1006.68,148,1.49,1.49,-91,1
1581554481,2020-02-13 01:41,100.00,989.02,1006.85,148,1.53,1.53,-92,1
1581554541,2020-02-13 01:42,100.00,988.95,1006.78,148,1.53,1.53,-92,1
1581554601,2020-02-13 01:43,100.00,989.03,1006.86,148,1.53,1.53,-93,1
1581554661,2020-02-13 01:44,100.00,989.03,1006.86,148,1.50,1.50,-91,1
1581554721,2020-02-13 01:45,100.00,989.00,1006.83,148,1.55,1.55,-94,1
1581554781,2020-02-13 01:46,100.00,988.92,1006.75,148,1.51,1.51,-91,1
1581554842,2020-02-13 01:47,100.00,988.97,1006.80,148,1.51,1.51,-92,1
1581554902,2020-02-13 01:48,100.00,989.07,1006.90,148,1.50,1.50,-92,1
1581554962,2020-02-13 01:49,100.00,989.09,1006.92,148,1.50,1.50,-90,1
1581555022,2020-02-13 01:50,100.00,989.01,1006.84,148,1.49,1.49,-89,1
1581555082,2020-02-13 01:51,100.00,989.04,1006.88,148,1.49,1.49,-92,1
1581555142,2020-02-13 01:52,100.00,988.98,1006.81,148,1.49,1.49,-91,1
1581555202,2020-02-13 01:53,100.00,989.04,1006.87,148,1.49,1.49,-93,1
1581555262,2020-02-13 01:54,100.00,989.05,1006.88,148,1.49,1.49,-93,1
1581555322,2020-02-13 01:55,100.00,989.03,1006.86,148,1.50,1.50,-92,1
1581555382,2020-02-13 01:56,100.00,989.02,1006.85,148,1.48,1.48,-94,1
1581555442,2020-02-13 01:57,100.00,989.02,1006.85,148,1.52,1.52,-92,1
1581555502,2020-02-13 01:58,100.00,989.03,1006.86,148,1.57,1.57,-92,1
1581555563,2020-02-13 01:59,100.00,988.94,1006.77,148,1.60,1.60,-91,1
1581555623,2020-02-13 02:00,100.00,989.14,1006.97,148,1.55,1.55,-93,1
1581555683,2020-02-13 02:01,100.00,989.01,1006.84,148,1.56,1.56,-93,1
1581555743,2020-02-13 02:02,100.00,989.11,1006.94,148,1.54,1.54,-91,1
1581555803,2020-02-13 02:03,100.00,989.09,1006.92,148,1.54,1.54,-93,1
1581555863,2020-02-13 02:04,100.00,989.09,1006.92,148,1.54,1.54,-93,1
1581555923,2020-02-13 02:05,100.00,989.10,1006.94,148,1.53,1.53,-92,1
1581555983,2020-02-13 02:06,100.00,989.22,1007.05,148,1.65,1.65,-92,1
1581556043,2020-02-13 02:07,100.00,989.02,1006.85,148,1.61,1.61,-91,1
1581556104,2020-02-13 02:08,100.00,989.07,1006.90,148,1.60,1.60,-94,1
1581556164,2020-02-13 02:09,100.00,989.10,1006.93,148,1.61,1.61,-92,1
1581556224,2020-02-13 02:10,100.00,989.09,1006.92,148,1.59,1.59,-92,1
1581556284,2020-02-13 02:11,100.00,989.09,1006.92,148,1.68,1.68,-91,1
1581556344,2020-02-13 02:12,100.00,989.10,1006.93,148,1.65,1.65,-95,1
1581556404,2020-02-13 02:13,100.00,989.10,1006.93,148,1.64,1.64,-93,1
1581556464,2020-02-13 02:14,100.00,989.11,1006.94,148,1.66,1.66,-92,1
1581556525,2020-02-13 02:15,100.00,989.12,1006.95,148,1.65,1.65,-91,1
1581556585,2020-02-13 02:16,100.00,989.14,1006.97,148,1.68,1.68,-93,1
1581556645,2020-02-13 02:17,100.00,989.11,1006.95,148,1.64,1.64,-91,1
1581556705,2020-02-13 02:18,100.00,989.14,1006.97,148,1.45,1.45,-92,1
1581556769,2020-02-13 02:19,100.00,989.14,1006.97,148,1.59,1.59,-94,1
1581556829,2020-02-13 02:20,100.00,989.14,1006.97,148,1.63,1.63,-93,1
1581556889,2020-02-13 02:21,100.00,989.03,1006.86,148,1.62,1.62,-91,1
1581556949,2020-02-13 02:22,100.00,989.09,1006.92,148,1.64,1.64,-92,1
1581557009,2020-02-13 02:23,100.00,989.07,1006.90,148,1.63,1.63,-92,1
1581557069,2020-02-13 02:24,100.00,989.08,1006.91,148,1.63,1.63,-94,1
1581557129,2020-02-13 02:25,100.00,989.19,1007.02,148,1.60,1.60,-95,1
1581557192,2020-02-13 02:26,100.00,989.15,1006.98,148,1.60,1.60,-92,1
1581557252,2020-02-13 02:27,100.00,989.19,1007.02,148,1.59,1.59,-92,1
1581557312,2020-02-13 02:28,100.00,989.21,1007.04,148,1.60,1.60,-91,1
1581557372,2020-02-13 02:29,100.00,989.27,1007.11,148,1.58,1.58,-92,1
1581557433,2020-02-13 02:30,100.00,989.20,1007.03,148,1.57,1.57,-93,1
1581557493,2020-02-13 02:31,100.00,989.18,1007.01,148,1.58,1.58,-94,1
1581557553,2020-02-13 02:32,100.00,989.23,1007.06,148,1.58,1.58,-91,1
1581557613,2020-02-13 02:33,100.00,989.20,1007.03,148,1.56,1.56,-91,1
1581557673,2020-02-13 02:34,100.00,989.26,1007.09,148,1.55,1.55,-93,1
1581557734,2020-02-13 02:35,100.00,989.22,1007.05,148,1.53,1.53,-92,1
1581557794,2020-02-13 02:36,100.00,989.33,1007.16,148,1.52,1.52,-93,1
1581557854,2020-02-13 02:37,100.00,989.23,1007.06,148,1.55,1.55,-91,1
1581557914,2020-02-13 02:38,100.00,989.28,1007.11,148,1.51,1.51,-93,1
1581557974,2020-02-13 02:39,100.00,989.33,1007.17,148,1.53,1.53,-93,1
1581558034,2020-02-13 02:40,100.00,989.35,1007.18,148,1.51,1.51,-91,1
1581558094,2020-02-13 02:41,100.00,989.27,1007.10,148,1.56,1.56,-93,1
1581558154,2020-02-13 02:42,100.00,989.33,1007.16,148,1.56,1.56,-92,1
1581558215,2020-02-13 02:43,100.00,989.37,1007.20,148,1.52,1.52,-90,1
1581558275,2020-02-13 02:44,100.00,989.32,1007.15,148,1.52,1.52,-91,1
1581558335,2020-02-13 02:45,100.00,989.41,1007.24,148,1.52,1.52,-92,1
1581558395,2020-02-13 02:46,100.00,989.40,1007.23,148,1.51,1.51,-91,1
1581558455,2020-02-13 02:47,100.00,989.42,1007.25,148,1.50,1.50,-93,1
1581558518,2020-02-13 02:48,100.00,989.43,1007.27,148,1.50,1.50,-91,1
1581558578,2020-02-13 02:49,100.00,989.47,1007.30,148,1.50,1.50,-90,1
1581558638,2020-02-13 02:50,100.00,989.43,1007.27,148,1.49,1.49,-93,1
1581558698,2020-02-13 02:51,100.00,989.47,1007.30,148,1.47,1.47,-92,1
1581558759,2020-02-13 02:52,100.00,989.46,1007.29,148,1.46,1.46,-92,1
1581558819,2020-02-13 02:53,100.00,989.50,1007.34,148,1.48,1.48,-92,1
1581558879,2020-02-13 02:54,100.00,989.46,1007.29,148,1.47,1.47,-92,1
1581558939,2020-02-13 02:55,100.00,989.45,1007.28,148,1.48,1.48,-91,1
1581558999,2020-02-13 02:56,100.00,989.46,1007.30,148,1.49,1.49,-91,1
1581559059,2020-02-13 02:57,100.00,989.41,1007.25,148,1.50,1.50,-91,1
1581559119,2020-02-13 02:58,100.00,989.43,1007.26,148,1.48,1.48,-93,1
1581559179,2020-02-13 02:59,100.00,989.48,1007.31,148,1.48,1.48,-93,1
1581559239,2020-02-13 03:00,100.00,989.43,1007.26,148,1.45,1.45,-92,1
1581559299,2020-02-13 03:01,100.00,989.46,1007.29,148,1.45,1.45,-93,1
1581559360,2020-02-13 03:02,100.00,989.42,1007.25,148,1.46,1.46,-95,1
1581559420,2020-02-13 03:03,100.00,989.38,1007.21,148,1.46,1.46,-93,1
1581559480,2020-02-13 03:04,100.00,989.49,1007.32,148,1.45,1.45,-92,1
1581559540,2020-02-13 03:05,100.00,989.48,1007.31,148,1.47,1.47,-92,1
1581559600,2020-02-13 03:06,100.00,989.46,1007.29,148,1.45,1.45,-90,1
1581559663,2020-02-13 03:07,100.00,989.43,1007.26,148,1.47,1.47,-92,1
1581559723,2020-02-13 03:08,100.00,989.52,1007.35,148,1.48,1.48,-92,1
1581559784,2020-02-13 03:09,100.00,989.51,1007.34,148,1.54,1.54,-92,1
1581559844,2020-02-13 03:10,100.00,989.55,1007.38,148,1.52,1.52,-91,1
1581559904,2020-02-13 03:11,100.00,989.49,1007.32,148,1.50,1.50,-91,1
1581559964,2020-02-13 03:12,100.00,989.57,1007.40,148,1.47,1.47,-93,1
1581560024,2020-02-13 03:13,100.00,989.55,1007.38,148,1.49,1.49,-91,1
1581560084,2020-02-13 03:14,100.00,989.61,1007.44,148,1.46,1.46,-91,1
1581560144,2020-02-13 03:15,100.00,989.59,1007.42,148,1.46,1.46,-90,1
1581560205,2020-02-13 03:16,100.00,989.65,1007.48,148,1.49,1.49,-92,1
1581560265,2020-02-13 03:17,100.00,989.67,1007.50,148,1.53,1.53,-93,1
1581560325,2020-02-13 03:18,100.00,989.67,1007.50,148,1.50,1.50,-93,1
1581560385,2020-02-13 03:19,100.00,989.73,1007.56,148,1.50,1.50,-92,1
1581560445,2020-02-13 03:20,100.00,989.74,1007.57,148,1.40,1.40,-93,1
1581560505,2020-02-13 03:21,100.00,989.78,1007.61,148,1.45,1.45,-93,1
1581560566,2020-02-13 03:22,100.00,989.77,1007.60,148,1.48,1.48,-91,1
1581560626,2020-02-13 03:23,100.00,989.68,1007.51,148,1.47,1.47,-92,1
1581560686,2020-02-13 03:24,100.00,989.77,1007.61,148,1.45,1.45,-94,1
1581560746,2020-02-13 03:25,100.00,989.80,1007.63,148,1.60,1.60,-91,1
1581560806,2020-02-13 03:26,100.00,989.78,1007.61,148,1.53,1.53,-91,1
1581560866,2020-02-13 03:27,100.00,989.78,1007.61,148,1.52,1.52,-92,1
1581560926,2020-02-13 03:28,100.00,989.83,1007.66,148,1.53,1.53,-92,1
1581560986,2020-02-13 03:29,100.00,989.85,1007.68,148,1.52,1.52,-94,1
1581561046,2020-02-13 03:30,100.00,989.69,1007.52,148,1.55,1.55,-93,1
1581561107,2020-02-13 03:31,100.00,989.78,1007.62,148,1.54,1.54,-89,1
1581561167,2020-02-13 03:32,100.00,989.86,1007.69,148,1.56,1.56,-93,1
1581561227,2020-02-13 03:33,100.00,989.86,1007.69,148,1.53,1.53,-92,1
1581561287,2020-02-13 03:34,100.00,989.85,1007.68,148,1.53,1.53,-93,1
1581561347,2020-02-13 03:35,100.00,989.69,1007.53,148,1.52,1.52,-92,1
1581561407,2020-02-13 03:36,100.00,989.92,1007.75,148,1.51,1.51,-91,1
1581561467,2020-02-13 03:37,100.00,989.91,1007.74,148,1.51,1.51,-92,1
1581561527,2020-02-13 03:38,100.00,989.93,1007.76,148,1.53,1.53,-92,1
1581561587,2020-02-13 03:39,100.00,989.90,1007.73,148,1.54,1.54,-92,1
1581561647,2020-02-13 03:40,100.00,989.92,1007.75,148,1.59,1.59,-92,1
1581561707,2020-02-13 03:41,100.00,989.94,1007.77,148,1.55,1.55,-92,1
1581561768,2020-02-13 03:42,100.00,989.99,1007.83,148,1.54,1.54,-92,1
1581561828,2020-02-13 03:43,100.00,989.98,1007.81,148,1.52,1.52,-92,1
1581561888,2020-02-13 03:44,100.00,990.01,1007.84,148,1.52,1.52,-92,1
1581561948,2020-02-13 03:45,100.00,990.05,1007.88,148,1.53,1.53,-92,1
1581562008,2020-02-13 03:46,100.00,990.04,1007.87,148,1.51,1.51,-94,1
1581562068,2020-02-13 03:47,100.00,990.04,1007.87,148,1.51,1.51,-92,1
1581562128,2020-02-13 03:48,100.00,990.04,1007.87,148,1.50,1.50,-91,1
1581562188,2020-02-13 03:49,100.00,990.02,1007.85,148,1.49,1.49,-92,1
1581562248,2020-02-13 03:50,100.00,990.03,1007.86,148,1.48,1.48,-92,1
1581562308,2020-02-13 03:51,100.00,990.06,1007.89,148,1.47,1.47,-92,1
1581562369,2020-02-13 03:52,100.00,990.10,1007.93,148,1.47,1.47,-93,1
1581562429,2020-02-13 03:53,100.00,990.06,1007.89,148,1.44,1.44,-92,1
1581562489,2020-02-13 03:54,100.00,990.12,1007.95,148,1.46,1.46,-93,1
1581562549,2020-02-13 03:55,100.00,990.03,1007.86,148,1.48,1.48,-92,1
1581562609,2020-02-13 03:56,100.00,990.04,1007.87,148,1.48,1.48,-92,1
1581562669,2020-02-13 03:57,100.00,990.06,1007.89,148,1.45,1.45,-92,1
1581562729,2020-02-13 03:58,100.00,990.11,1007.95,148,1.46,1.46,-90,1
1581562792,2020-02-13 03:59,100.00,990.03,1007.86,148,1.44,1.44,-92,1
1581562852,2020-02-13 04:00,100.00,990.20,1008.03,148,1.43,1.43,-92,1
1581562913,2020-02-13 04:01,100.00,990.16,1007.99,148,1.43,1.43,-92,1
1581562973,2020-02-13 04:02,100.00,990.18,1008.01,148,1.41,1.41,-91,1
1581563034,2020-02-13 04:03,100.00,990.21,1008.04,148,1.41,1.41,-92,1
1581563094,2020-02-13 04:04,100.00,990.21,1008.04,148,1.40,1.40,-94,1
1581563155,2020-02-13 04:05,100.00,990.18,1008.01,148,1.39,1.39,-92,1
1581563282,2020-02-13 04:08,100.00,990.25,1008.08,148,1.41,1.41,-94,1
1581563344,2020-02-13 04:09,100.00,990.28,1008.11,148,1.39,1.39,-93,1
1581563405,2020-02-13 04:10,100.00,990.30,1008.13,148,1.38,1.38,-92,1
1581563467,2020-02-13 04:11,100.00,990.25,1008.08,148,1.36,1.36,-93,1
1581563527,2020-02-13 04:12,100.00,990.28,1008.11,148,1.38,1.38,-91,1
1581563587,2020-02-13 04:13,100.00,990.30,1008.13,148,1.38,1.38,-92,1
1581563648,2020-02-13 04:14,100.00,990.30,1008.14,148,1.38,1.38,-91,1
1581563709,2020-02-13 04:15,100.00,990.30,1008.13,148,1.38,1.38,-91,1
1581563769,2020-02-13 04:16,100.00,990.40,1008.23,148,1.34,1.34,-93,1
1581563830,2020-02-13 04:17,100.00,990.35,1008.18,148,1.48,1.48,-91,1
1581563890,2020-02-13 04:18,100.00,990.36,1008.19,148,1.44,1.44,-91,1
1581563951,2020-02-13 04:19,100.00,990.39,1008.22,148,1.51,1.51,-92,1
1581564011,2020-02-13 04:20,100.00,990.34,1008.18,148,1.46,1.46,-92,1
1581564135,2020-02-13 04:22,100.00,990.41,1008.24,148,1.50,1.50,-92,1
1581564195,2020-02-13 04:23,100.00,990.39,1008.22,148,1.49,1.49,-90,1
1581564256,2020-02-13 04:24,100.00,990.54,1008.37,148,1.41,1.41,-92,1
1581564317,2020-02-13 04:25,100.00,990.26,1008.09,148,1.46,1.46,-92,1
1581564377,2020-02-13 04:26,100.00,990.37,1008.20,148,1.43,1.43,-92,1
1581564437,2020-02-13 04:27,100.00,990.37,1008.20,148,1.56,1.56,-92,1
1581564497,2020-02-13 04:28,100.00,990.43,1008.26,148,1.52,1.52,-92,1
1581564557,2020-02-13 04:29,100.00,990.55,1008.38,148,1.52,1.52,-92,1
1581564618,2020-02-13 04:30,100.00,990.52,1008.36,148,1.57,1.57,-93,1
1581564681,2020-02-13 04:31,100.00,990.47,1008.30,148,1.54,1.54,-92,1
1581564741,2020-02-13 04:32,100.00,990.57,1008.40,148,1.50,1.50,-93,1
1581564802,2020-02-13 04:33,100.00,990.59,1008.42,148,1.56,1.56,-94,1
1581564863,2020-02-13 04:34,100.00,990.56,1008.39,148,1.55,1.55,-90,1
1581564926,2020-02-13 04:35,100.00,990.59,1008.42,148,1.54,1.54,-93,1
1581564986,2020-02-13 04:36,100.00,990.63,1008.46,148,1.52,1.52,-91,1
1581565047,2020-02-13 04:37,100.00,990.60,1008.43,148,1.56,1.56,-92,1
1581565107,2020-02-13 04:38,100.00,990.62,1008.45,148,1.53,1.53,-91,1
1581565168,2020-02-13 04:39,100.00,990.63,1008.46,148,1.50,1.50,-93,1
1581565229,2020-02-13 04:40,100.00,990.62,1008.45,148,1.51,1.51,-92,1
1581565290,2020-02-13 04:41,100.00,990.63,1008.47,148,1.50,1.50,-92,1
1581565351,2020-02-13 04:42,100.00,990.62,1008.46,148,1.53,1.53,-92,1
1581565414,2020-02-13 04:43,100.00,990.72,1008.55,148,1.55,1.55,-92,1
1581565475,2020-02-13 04:44,100.00,990.66,1008.49,148,1.44,1.44,-92,1
1581565536,2020-02-13 04:45,100.00,990.63,1008.46,148,1.53,1.53,-93,1
1581565600,2020-02-13 04:46,100.00,990.67,1008.50,148,1.58,1.58,-91,1
1581565660,2020-02-13 04:47,100.00,990.67,1008.50,148,1.63,1.63,-92,1
1581565720,2020-02-13 04:48,100.00,990.64,1008.48,148,1.59,1.59,-92,1
1581565781,2020-02-13 04:49,100.00,990.74,1008.57,148,1.57,1.57,-93,1
1581565841,2020-02-13 04:50,100.00,990.75,1008.58,148,1.54,1.54,-91,1
1581565902,2020-02-13 04:51,100.00,990.71,1008.54,148,1.55,1.55,-90,1
1581565963,2020-02-13 04:52,100.00,990.73,1008.56,148,1.54,1.54,-92,1
1581566023,2020-02-13 04:53,100.00,990.77,1008.61,148,1.75,1.75,-93,1
1581566084,2020-02-13 04:54,100.00,990.78,1008.61,148,1.73,1.73,-90,1
1581566145,2020-02-13 04:55,100.00,990.80,1008.63,148,1.71,1.71,-94,1
1581566205,2020-02-13 04:56,100.00,990.75,1008.58,148,1.66,1.66,-92,1
1581566268,2020-02-13 04:57,100.00,990.83,1008.66,148,1.63,1.63,-92,1
1581566329,2020-02-13 04:58,100.00,990.78,1008.61,148,1.59,1.59,-92,1
1581566392,2020-02-13 04:59,100.00,990.79,1008.63,148,1.60,1.60,-90,1
1581566452,2020-02-13 05:00,100.00,990.81,1008.64,148,1.58,1.58,-92,1
1581566515,2020-02-13 05:01,100.00,990.78,1008.61,148,1.62,1.62,-92,1
1581566575,2020-02-13 05:02,100.00,990.80,1008.63,148,1.60,1.60,-93,1
1581566636,2020-02-13 05:03,100.00,990.82,1008.65,148,1.60,1.60,-92,1
1581566762,2020-02-13 05:06,100.00,990.78,1008.62,148,1.66,1.66,-91,1
1581566823,2020-02-13 05:07,100.00,990.78,1008.61,148,1.76,1.76,-92,1
1581566884,2020-02-13 05:08,100.00,990.84,1008.67,148,1.70,1.70,-94,1
1581566950,2020-02-13 05:09,100.00,990.80,1008.63,148,1.67,1.67,-91,1
1581567074,2020-02-13 05:11,100.00,990.82,1008.65,148,1.65,1.65,-91,1
1581567134,2020-02-13 05:12,100.00,990.87,1008.70,148,1.63,1.63,-92,1
1581567197,2020-02-13 05:13,100.00,990.92,1008.75,148,1.79,1.79,-92,1
1581567258,2020-02-13 05:14,100.00,990.88,1008.72,148,1.75,1.75,-93,1
1581567319,2020-02-13 05:15,100.00,990.98,1008.81,148,1.69,1.69,-92,1
1581567383,2020-02-13 05:16,100.00,990.96,1008.79,148,1.64,1.64,-92,1
1581567446,2020-02-13 05:17,100.00,991.02,1008.85,148,1.68,1.68,-92,1
1581567509,2020-02-13 05:18,100.00,990.96,1008.79,148,1.65,1.65,-91,1
1581567569,2020-02-13 05:19,100.00,991.06,1008.90,148,1.64,1.64,-92,1
1581567630,2020-02-13 05:20,100.00,990.98,1008.82,148,1.63,1.63,-93,1
1581567694,2020-02-13 05:21,100.00,990.95,1008.78,148,1.60,1.60,-93,1
1581567754,2020-02-13 05:22,100.00,991.02,1008.85,148,1.60,1.60,-92,1
1581567814,2020-02-13 05:23,100.00,991.06,1008.89,148,1.60,1.60,-92,1
1581567878,2020-02-13 05:24,100.00,991.04,1008.88,148,1.62,1.62,-93,1
1581567938,2020-02-13 05:25,100.00,991.06,1008.89,148,1.53,1.53,-91,1
1581567998,2020-02-13 05:26,100.00,991.04,1008.87,148,1.62,1.62,-92,1
1581568059,2020-02-13 05:27,100.00,991.14,1008.97,148,1.69,1.69,-93,1
1581568122,2020-02-13 05:28,100.00,991.09,1008.92,148,1.63,1.63,-92,1
1581568245,2020-02-13 05:30,100.00,991.04,1008.87,148,1.64,1.64,-92,1
1581568309,2020-02-13 05:31,100.00,991.17,1009.00,148,1.39,1.39,-93,1
1581568369,2020-02-13 05:32,100.00,991.12,1008.95,148,1.59,1.59,-92,1
1581568492,2020-02-13 05:34,100.00,991.07,1008.90,148,1.64,1.64,-91,1
1581568553,2020-02-13 05:35,100.00,991.11,1008.95,148,1.59,1.59,-92,1
1581568615,2020-02-13 05:36,100.00,991.15,1008.98,148,1.57,1.57,-90,1
1581568676,2020-02-13 05:37,100.00,991.06,1008.89,148,1.71,1.71,-91,1
1581568738,2020-02-13 05:38,100.00,991.12,1008.95,148,1.65,1.65,-92,1
1581568798,2020-02-13 05:39,100.00,991.16,1008.99,148,1.60,1.60,-91,1
1581568859,2020-02-13 05:40,100.00,991.11,1008.95,148,1.62,1.62,-91,1
1581568919,2020-02-13 05:41,100.00,991.17,1009.00,148,1.62,1.62,-92,1
1581568983,2020-02-13 05:43,100.00,991.19,1009.02,148,1.57,1.57,-91,1
1581569043,2020-02-13 05:44,100.00,991.19,1009.02,148,1.56,1.56,-92,1
1581569103,2020-02-13 05:45,100.00,991.25,1009.08,148,1.54,1.54,-93,1
1581569164,2020-02-13 05:46,100.00,991.22,1009.05,148,1.58,1.58,-92,1
1581569224,2020-02-13 05:47,100.00,991.24,1009.07,148,1.60,1.60,-93,1
1581569285,2020-02-13 05:48,100.00,991.22,1009.05,148,1.62,1.62,-93,1
1581569345,2020-02-13 05:49,100.00,991.32,1009.15,148,1.71,1.71,-93,1
1581569406,2020-02-13 05:50,100.00,991.22,1009.05,148,1.64,1.64,-93,1
1581569467,2020-02-13 05:51,100.00,991.02,1008.85,148,1.62,1.62,-92,1
1581569591,2020-02-13 05:53,100.00,991.27,1009.10,148,1.67,1.67,-94,1